This demonstration page uses our WeatherBlox Daily Observations layout. Learn more.

Left ArrowRight Arrow

34.74481, -87.66753

Hourly Observations for July 15, 2019

Temp ( °F °C ) Dew Point ( °F °C ) Humidity (%) Winds ( mph kmh ) Pressure ( in mb ) Visibility ( mi km ) Precip ( " mm )
12:53 am 00:53 Mostly Cloudy 73 22.8 71 21.7 94 94 ENE 9 15 30.07 1018 10 16 0.00 0.00
1:53 am 01:53 Clear with Light Rain 74 23.3 71 21.7 91 91 undefined N/A 30.09 1019 10 16 0.01 0.25
2:53 am 02:53 Partly Cloudy with Light Rain 73 22.8 71 21.7 94 94 E 3 6 30.08 1019 10 16 0.02 0.51
3:53 am 03:53 Clear with Light Rain 73 22.8 71 21.7 94 94 ESE 6 9 30.06 1018 10 16 0.04 1.02
4:53 am 04:53 Partly Cloudy 73 22.8 71 21.7 94 94 undefined N/A 30.06 1018 10 16 0.00 0.00
5:53 am 05:53 Mostly Cloudy 73 22.8 70 21.1 90 90 ESE 7 11 30.06 1018 10 16 0.00 0.00
6:53 am 06:53 Mostly Cloudy 73 22.8 70 21.1 90 90 E 10 17 30.05 1018 10 16 0.00 0.00
7:53 am 07:53 Mostly Sunny 74 23.3 71 21.7 91 91 SE 6 9 30.09 1019 10 16 0.00 0.00
8:53 am 08:53 Mostly Cloudy with Light Rain 76 24.4 71 21.7 85 85 SE 6 9 30.10 1019 10 16 0.00 0.00
9:53 am 09:53 Mostly Cloudy with Light Rain 77 25 72 22.2 85 85 S 8 13 30.11 1020 10 16 0.01 0.25
10:53 am 10:53 Mostly Cloudy 78 25.6 73 22.8 85 85 SSE 10 17 30.09 1019 10 16 0.00 0.00
11:50 am 11:50 Cloudy with Light Rain 75 24 72 22 89 89 SW 14 22 30.09 1019 10 16 0.02 0.51
11:53 am 11:53 Cloudy with Light Rain 76 24.4 71 21.7 85 85 SSW 13 20 30.11 1020 10 16 0.03 0.76
12:53 pm 12:53 Mostly Cloudy with Light Rain 76 24.4 71 21.7 85 85 SSE 8 13 30.09 1019 10 16 0.03 0.76
1:53 pm 13:53 Cloudy 77 25 72 22.2 85 85 SE 14 22 30.08 1019 10 16 0.00 0.00
2:53 pm 14:53 Mostly Sunny 78 25.6 71 21.7 79 79 SE 12 19 30.06 1018 10 16 0.00 0.00
3:53 pm 15:53 Mostly Sunny 81 27.2 72 22.2 74 74 SE 12 19 30.05 1018 10 16 0.00 0.00
4:53 pm 16:53 Sunny 81 27.2 72 22.2 74 74 SSE 9 15 30.04 1017 10 16 0.00 0.00
5:53 pm 17:53 Mostly Sunny 82 27.8 73 22.8 74 74 SE 10 17 30.02 1017 10 16 0.00 0.00
6:53 pm 18:53 Mostly Cloudy 82 27.8 75 23.9 79 79 SE 6 9 30.01 1016 10 16 0.00 0.00
7:53 pm 19:53 Sunny 80 26.7 74 23.3 82 82 SE 7 11 30.02 1017 10 16 0.00 0.00
8:53 pm 20:53 Clear 78 25.6 74 23.3 87 87 SE 6 9 30.02 1017 10 16 0.00 0.00
9:53 pm 21:53 Clear 78 25.6 73 22.8 85 85 SSE 7 11 30.04 1017 10 16 0.00 0.00
10:53 pm 22:53 Clear 77 25 74 23.3 90 90 SE 6 9 30.05 1018 10 16 0.00 0.00
11:53 pm 23:53 Clear 77 25 73 22.8 88 88 SSE 7 11 30.05 1018 10 16 0.00 0.00

Powered by AerisWeather